Погода в Давлетове

Россия / Республика Башкортостан     53°20′57″N   58°40′33″E
темп.,
°C
ветер,
м/с
пор.,
м/с
влажн.,
%
обл.,
%
осадки,
мм/ч
давл.,
гПа
погр.,
м
25 мая, ср
ср2523:00+12с3497100 2.8 100593
02:00+13св2291100 0.0 100421
05:00+13юв3783100 0.0 1004230
08:00+15ююв7157484 0.1 1003679
11:00+18ю101769100 0.3 10041619
14:00+16зюз9117275 0.5 10051138
17:00+14з776465 0.5 10081206
20:00+13з46705 0.0 1010292
26 мая, чт
чт2623:00+9з22770 0.0 101114
02:00+8зюз22775 0.0 101211
05:00+7зюз228361 0.0 101311
08:00+9зсз577521 0.0 1013489
11:00+13ссз555687 0.0 10121178
14:00+15ссз5642100 0.0 10111681
17:00+15ссз4446100 0.0 10121651
20:00+12сз5956100 0.1 1012557
27 мая, пт
пт2723:00+9сз41062100 0.1 1014391
02:00+6зсз37750 0.0 1016139
05:00+5з227710 0.0 101619
08:00+10зюз3562100 0.0 1016385
11:00+14зюз5649100 0.0 10151694
14:00+16юз464463 0.0 10142028
17:00+16юз6651100 0.0 10141368
20:00+13юз4866100 0.0 1014296
28 мая, сб
сб2823:00+9ююз3479100 0.0 101468
02:00+9ююз3482100 0.0 101482
05:00+10ю3782100 0.1 1013283
08:00+10ю4889100 0.2 1013431
11:00+13ююз457630 0.2 1013797
14:00+16юз566238 0.7 10141262
17:00+17юз345975 1.1 10141144
20:00+16зюз36725 0.1 1016157
29 мая, вс
вс2923:00+11з3883100 0.1 1018150
02:00+10зюз22865 0.0 101919
05:00+9юз228954 0.0 102013
08:00+14зюз35735 0.0 1021326
11:00+19зюз45545 0.0 10211132
14:00+22юз44486 0.0 10211713
17:00+22з4555100 0.0 10211066
20:00+19з47705 0.0 1022221